contact:dominique.lefevre@mio.osupytheas.fr, maurice.libes@osupytheas.fr, didier.mallarino@osupytheas.fr
Project:EMSO http://www.emso-fr.org/EMSO-France
Depth: 2436.0 m
Title:EMSO Ligure Ouest : Data MII capteur MICROCAT
DateTime_Computer,Latitude,Longitude,Temperature,Conductivity,Pressure,DateTime_Instrument
DateTime_Computer,Latitude,Longitude,degC,S m-1,dbar,DateTime_Instrument
2019-08-21T00:02:44Z,42.805,6.029,13.2954,4.59955,2469.984,2019-8-21T02:03:05Z
2019-08-21T00:05:47Z,42.805,6.029,13.2955,4.59954,2469.97,2019-8-21T02:06:09Z
2019-08-21T00:08:51Z,42.805,6.029,13.2957,4.59959,2469.979,2019-8-21T02:09:12Z
2019-08-21T00:11:54Z,42.805,6.029,13.2954,4.59956,2469.984,2019-8-21T02:12:15Z
2019-08-21T00:14:57Z,42.805,6.029,13.2957,4.59954,2469.984,2019-8-21T02:15:18Z
2019-08-21T00:18:00Z,42.805,6.029,13.2958,4.59953,2470.007,2019-8-21T02:18:21Z
2019-08-21T00:21:03Z,42.805,6.029,13.2954,4.59952,2469.97,2019-8-21T02:21:24Z
2019-08-21T00:24:06Z,42.805,6.029,13.2955,4.59954,2469.947,2019-8-21T02:24:28Z
2019-08-21T00:27:10Z,42.805,6.029,13.2953,4.59955,2469.97,2019-8-21T02:27:31Z
2019-08-21T00:30:13Z,42.805,6.029,13.2957,4.59954,2469.984,2019-8-21T02:30:34Z
2019-08-21T00:33:16Z,42.805,6.029,13.2953,4.59956,2469.96,2019-8-21T02:33:37Z
2019-08-21T00:36:19Z,42.805,6.029,13.2958,4.59955,2469.97,2019-8-21T02:36:40Z
2019-08-21T00:39:22Z,42.805,6.029,13.2958,4.59954,2469.96,2019-8-21T02:39:44Z
2019-08-21T00:42:26Z,42.805,6.029,13.2954,4.59954,2469.947,2019-8-21T02:42:47Z
2019-08-21T00:45:29Z,42.805,6.029,13.2954,4.59956,2469.947,2019-8-21T02:45:50Z
2019-08-21T00:48:32Z,42.805,6.029,13.2953,4.59954,2469.97,2019-8-21T02:48:53Z
2019-08-21T00:51:35Z,42.805,6.029,13.2952,4.59954,2469.947,2019-8-21T02:51:56Z
2019-08-21T00:54:38Z,42.805,6.029,13.2955,4.59952,2469.937,2019-8-21T02:55:00Z
2019-08-21T00:57:42Z,42.805,6.029,13.2953,4.59954,2469.937,2019-8-21T02:58:03Z
2019-08-21T01:00:45Z,42.805,6.029,13.2955,4.59956,2469.947,2019-8-21T03:01:06Z
2019-08-21T01:03:48Z,42.805,6.029,13.2958,4.59954,2469.947,2019-8-21T03:04:09Z
2019-08-21T01:06:51Z,42.805,6.029,13.2954,4.59954,2469.947,2019-8-21T03:07:12Z
2019-08-21T01:09:55Z,42.805,6.029,13.2957,4.59955,2469.937,2019-8-21T03:10:16Z
2019-08-21T01:12:58Z,42.805,6.029,13.2960,4.59954,2469.947,2019-8-21T03:13:19Z
2019-08-21T01:16:01Z,42.805,6.029,13.2956,4.59954,2469.984,2019-8-21T03:16:22Z
2019-08-21T01:19:04Z,42.805,6.029,13.2957,4.59956,2469.947,2019-8-21T03:19:25Z
2019-08-21T01:22:07Z,42.805,6.029,13.2957,4.59953,2469.937,2019-8-21T03:22:29Z
2019-08-21T01:25:11Z,42.805,6.029,13.2960,4.59954,2469.923,2019-8-21T03:25:32Z
2019-08-21T01:28:14Z,42.805,6.029,13.2952,4.59954,2469.97,2019-8-21T03:28:35Z
2019-08-21T01:31:17Z,42.805,6.029,13.2958,4.59954,2469.937,2019-8-21T03:31:38Z
2019-08-21T01:34:20Z,42.805,6.029,13.2953,4.59954,2469.923,2019-8-21T03:34:41Z
2019-08-21T01:37:23Z,42.805,6.029,13.2959,4.59954,2469.9,2019-8-21T03:37:45Z
2019-08-21T01:40:27Z,42.805,6.029,13.2957,4.59954,2469.923,2019-8-21T03:40:48Z
2019-08-21T01:43:30Z,42.805,6.029,13.2955,4.59954,2469.923,2019-8-21T03:43:51Z
2019-08-21T01:46:33Z,42.805,6.029,13.2956,4.59953,2469.923,2019-8-21T03:46:54Z
2019-08-21T01:49:36Z,42.805,6.029,13.2956,4.59955,2469.947,2019-8-21T03:49:57Z
2019-08-21T01:52:39Z,42.805,6.029,13.2957,4.59953,2469.9,2019-8-21T03:53:01Z
2019-08-21T01:55:43Z,42.805,6.029,13.2957,4.59954,2469.947,2019-8-21T03:56:04Z
2019-08-21T01:58:46Z,42.805,6.029,13.2957,4.59954,2469.923,2019-8-21T03:59:07Z
2019-08-21T02:01:49Z,42.805,6.029,13.2957,4.59954,2469.937,2019-8-21T04:02:10Z
2019-08-21T02:04:52Z,42.805,6.029,13.2954,4.59957,2469.9,2019-8-21T04:05:13Z
2019-08-21T02:07:55Z,42.805,6.029,13.2957,4.59956,2469.937,2019-8-21T04:08:17Z
2019-08-21T02:10:59Z,42.805,6.029,13.2954,4.59954,2469.923,2019-8-21T04:11:20Z
2019-08-21T02:14:02Z,42.805,6.029,13.2956,4.59958,2469.914,2019-8-21T04:14:23Z
2019-08-21T02:17:05Z,42.805,6.029,13.2956,4.59955,2469.9,2019-8-21T04:17:26Z
2019-08-21T02:20:08Z,42.805,6.029,13.2951,4.59953,2469.947,2019-8-21T04:20:29Z
2019-08-21T02:23:11Z,42.805,6.029,13.2959,4.59954,2469.9,2019-8-21T04:23:33Z
2019-08-21T02:26:15Z,42.805,6.029,13.2956,4.59954,2469.914,2019-8-21T04:26:36Z
2019-08-21T02:29:18Z,42.805,6.029,13.2953,4.59953,2469.923,2019-8-21T04:29:39Z
2019-08-21T02:32:21Z,42.805,6.029,13.2956,4.59954,2469.937,2019-8-21T04:32:42Z
2019-08-21T02:35:24Z,42.805,6.029,13.2952,4.59954,2469.9,2019-8-21T04:35:45Z
2019-08-21T02:38:27Z,42.805,6.029,13.2953,4.59954,2469.89,2019-8-21T04:38:49Z
2019-08-21T02:41:31Z,42.805,6.029,13.2957,4.59953,2469.9,2019-8-21T04:41:52Z
2019-08-21T02:44:34Z,42.805,6.029,13.2957,4.59954,2469.876,2019-8-21T04:44:55Z
2019-08-21T02:47:37Z,42.805,6.029,13.2956,4.59953,2469.9,2019-8-21T04:47:58Z
2019-08-21T02:50:40Z,42.805,6.029,13.2959,4.59954,2469.923,2019-8-21T04:51:01Z
2019-08-21T02:53:43Z,42.805,6.029,13.2957,4.59953,2469.914,2019-8-21T04:54:04Z
2019-08-21T02:56:47Z,42.805,6.029,13.2952,4.59955,2469.914,2019-8-21T04:57:08Z
2019-08-21T02:59:50Z,42.805,6.029,13.2957,4.59953,2469.876,2019-8-21T05:00:11Z
2019-08-21T03:02:53Z,42.805,6.029,13.2955,4.59952,2469.9,2019-8-21T05:03:14Z
2019-08-21T03:05:56Z,42.805,6.029,13.2955,4.59953,2469.89,2019-8-21T05:06:17Z
2019-08-21T03:08:59Z,42.805,6.029,13.2957,4.59956,2469.876,2019-8-21T05:09:20Z
2019-08-21T03:12:03Z,42.805,6.029,13.2955,4.59953,2469.89,2019-8-21T05:12:24Z
2019-08-21T03:15:06Z,42.805,6.029,13.2958,4.59953,2469.9,2019-8-21T05:15:27Z
2019-08-21T03:18:09Z,42.805,6.029,13.2954,4.59953,2469.9,2019-8-21T05:18:30Z
2019-08-21T03:21:12Z,42.805,6.029,13.2954,4.59954,2469.89,2019-8-21T05:21:33Z
2019-08-21T03:24:15Z,42.805,6.029,13.2954,4.59952,2469.867,2019-8-21T05:24:36Z
2019-08-21T03:27:18Z,42.805,6.029,13.2955,4.59956,2469.876,2019-8-21T05:27:40Z
2019-08-21T03:30:22Z,42.805,6.029,13.2956,4.59953,2469.89,2019-8-21T05:30:43Z
2019-08-21T03:33:25Z,42.805,6.029,13.2954,4.59953,2469.89,2019-8-21T05:33:46Z
2019-08-21T03:36:28Z,42.805,6.029,13.2953,4.59954,2469.876,2019-8-21T05:36:49Z
2019-08-21T03:39:31Z,42.805,6.029,13.2955,4.59956,2469.853,2019-8-21T05:39:52Z
2019-08-21T03:42:34Z,42.805,6.029,13.2953,4.59953,2469.89,2019-8-21T05:42:56Z
2019-08-21T03:45:38Z,42.805,6.029,13.2953,4.59956,2469.876,2019-8-21T05:45:59Z
2019-08-21T03:48:41Z,42.805,6.029,13.2957,4.59954,2469.9,2019-8-21T05:49:02Z
2019-08-21T03:51:44Z,42.805,6.029,13.2957,4.59953,2469.89,2019-8-21T05:52:05Z
2019-08-21T03:54:47Z,42.805,6.029,13.2957,4.59954,2469.876,2019-8-21T05:55:08Z
2019-08-21T03:57:51Z,42.805,6.029,13.2952,4.59954,2469.867,2019-8-21T05:58:12Z
2019-08-21T04:00:54Z,42.805,6.029,13.2954,4.59954,2469.89,2019-8-21T06:01:15Z
2019-08-21T04:03:57Z,42.805,6.029,13.2953,4.59955,2469.853,2019-8-21T06:04:18Z
2019-08-21T04:07:00Z,42.805,6.029,13.2958,4.59953,2469.853,2019-8-21T06:07:22Z
2019-08-21T04:10:04Z,42.805,6.029,13.2957,4.59953,2469.876,2019-8-21T06:10:25Z
2019-08-21T04:13:07Z,42.805,6.029,13.2958,4.59954,2469.876,2019-8-21T06:13:28Z
2019-08-21T04:16:10Z,42.805,6.029,13.2958,4.59955,2469.867,2019-8-21T06:16:31Z
2019-08-21T04:19:13Z,42.805,6.029,13.2957,4.59956,2469.853,2019-8-21T06:19:34Z
2019-08-21T04:22:17Z,42.805,6.029,13.2953,4.59954,2469.83,2019-8-21T06:22:38Z
2019-08-21T04:25:20Z,42.805,6.029,13.2957,4.59954,2469.83,2019-8-21T06:25:41Z
2019-08-21T04:28:23Z,42.805,6.029,13.2957,4.59953,2469.853,2019-8-21T06:28:44Z
2019-08-21T04:31:26Z,42.805,6.029,13.2955,4.59954,2469.876,2019-8-21T06:31:47Z
2019-08-21T04:34:29Z,42.805,6.029,13.2957,4.59954,2469.914,2019-8-21T06:34:50Z
2019-08-21T04:37:32Z,42.805,6.029,13.2954,4.59954,2469.83,2019-8-21T06:37:54Z
2019-08-21T04:40:36Z,42.805,6.029,13.2953,4.59954,2469.839,2019-8-21T06:40:57Z
2019-08-21T04:43:39Z,42.805,6.029,13.2958,4.59954,2469.914,2019-8-21T06:44:00Z
2019-08-21T04:46:42Z,42.805,6.029,13.2957,4.59953,2469.89,2019-8-21T06:47:03Z
2019-08-21T04:49:45Z,42.805,6.029,13.2956,4.59956,2469.844,2019-8-21T06:50:06Z
2019-08-21T04:52:48Z,42.805,6.029,13.2954,4.59956,2469.9,2019-8-21T06:53:10Z
2019-08-21T04:55:52Z,42.805,6.029,13.2956,4.59954,2469.853,2019-8-21T06:56:13Z
2019-08-21T04:58:55Z,42.805,6.029,13.2956,4.59954,2469.876,2019-8-21T06:59:16Z
2019-08-21T05:01:58Z,42.805,6.029,13.2957,4.59953,2469.89,2019-8-21T07:02:19Z
2019-08-21T05:05:01Z,42.805,6.029,13.2955,4.59956,2469.844,2019-8-21T07:05:22Z
2019-08-21T05:08:04Z,42.805,6.029,13.2956,4.59953,2469.89,2019-8-21T07:08:26Z
2019-08-21T05:11:08Z,42.805,6.029,13.2958,4.59953,2469.89,2019-8-21T07:11:29Z
2019-08-21T05:14:11Z,42.805,6.029,13.2955,4.59954,2469.89,2019-8-21T07:14:32Z
2019-08-21T05:17:14Z,42.805,6.029,13.2956,4.59953,2469.83,2019-8-21T07:17:35Z
2019-08-21T05:20:17Z,42.805,6.029,13.2957,4.59954,2469.867,2019-8-21T07:20:38Z
2019-08-21T05:23:20Z,42.805,6.029,13.2957,4.59954,2469.853,2019-8-21T07:23:42Z
2019-08-21T05:26:24Z,42.805,6.029,13.2957,4.59953,2469.867,2019-8-21T07:26:45Z
2019-08-21T05:29:27Z,42.805,6.029,13.2961,4.59953,2469.9,2019-8-21T07:29:48Z
2019-08-21T05:32:30Z,42.805,6.029,13.2958,4.59952,2469.853,2019-8-21T07:32:51Z
2019-08-21T05:35:33Z,42.805,6.029,13.2952,4.59956,2469.876,2019-8-21T07:35:54Z
2019-08-21T05:38:36Z,42.805,6.029,13.2957,4.59956,2469.867,2019-8-21T07:38:58Z
2019-08-21T05:41:40Z,42.805,6.029,13.2958,4.59956,2469.853,2019-8-21T07:42:01Z
2019-08-21T05:44:43Z,42.805,6.029,13.2961,4.59954,2469.853,2019-8-21T07:45:04Z
2019-08-21T05:47:46Z,42.805,6.029,13.2953,4.59952,2469.876,2019-8-21T07:48:07Z
2019-08-21T05:50:49Z,42.805,6.029,13.2953,4.59952,2469.876,2019-8-21T07:51:10Z
2019-08-21T05:53:52Z,42.805,6.029,13.2957,4.59952,2469.867,2019-8-21T07:54:14Z
2019-08-21T05:56:56Z,42.805,6.029,13.2956,4.59953,2469.89,2019-8-21T07:57:17Z
2019-08-21T05:59:59Z,42.805,6.029,13.2957,4.59954,2469.867,2019-8-21T08:00:20Z
2019-08-21T06:03:02Z,42.805,6.029,13.2956,4.59954,2469.853,2019-8-21T08:03:23Z
2019-08-21T06:06:05Z,42.805,6.029,13.2954,4.59954,2469.853,2019-8-21T08:06:26Z
2019-08-21T06:09:08Z,42.805,6.029,13.2956,4.59953,2469.89,2019-8-21T08:09:29Z
2019-08-21T06:12:12Z,42.805,6.029,13.2957,4.59954,2469.853,2019-8-21T08:12:33Z
2019-08-21T06:15:15Z,42.805,6.029,13.2954,4.59953,2469.914,2019-8-21T08:15:36Z
2019-08-21T06:18:18Z,42.805,6.029,13.2958,4.59952,2469.89,2019-8-21T08:18:39Z
2019-08-21T06:21:21Z,42.805,6.029,13.2958,4.59954,2469.876,2019-8-21T08:21:42Z
2019-08-21T06:24:24Z,42.805,6.029,13.2956,4.59954,2469.876,2019-8-21T08:24:45Z
2019-08-21T06:27:28Z,42.805,6.029,13.2956,4.59952,2469.914,2019-8-21T08:27:49Z
2019-08-21T06:30:31Z,42.805,6.029,13.2952,4.59953,2469.937,2019-8-21T08:30:52Z
2019-08-21T06:33:34Z,42.805,6.029,13.2954,4.59953,2469.914,2019-8-21T08:33:55Z
2019-08-21T06:36:37Z,42.805,6.029,13.2955,4.59952,2469.876,2019-8-21T08:36:58Z
2019-08-21T06:39:40Z,42.805,6.029,13.2952,4.59953,2469.89,2019-8-21T08:40:01Z
2019-08-21T06:42:43Z,42.805,6.029,13.2955,4.59956,2469.876,2019-8-21T08:43:05Z
2019-08-21T06:45:47Z,42.805,6.029,13.2956,4.59953,2469.876,2019-8-21T08:46:08Z
2019-08-21T06:48:50Z,42.805,6.029,13.2958,4.59954,2469.89,2019-8-21T08:49:11Z
2019-08-21T06:51:53Z,42.805,6.029,13.2955,4.59953,2469.876,2019-8-21T08:52:14Z
2019-08-21T06:54:56Z,42.805,6.029,13.2955,4.59954,2469.876,2019-8-21T08:55:17Z
2019-08-21T06:57:59Z,42.805,6.029,13.2953,4.59953,2469.876,2019-8-21T08:58:21Z
2019-08-21T07:01:03Z,42.805,6.029,13.2955,4.59954,2469.876,2019-8-21T09:01:24Z
2019-08-21T07:04:06Z,42.805,6.029,13.2958,4.59953,2469.853,2019-8-21T09:04:27Z
2019-08-21T07:07:09Z,42.805,6.029,13.2958,4.59952,2469.867,2019-8-21T09:07:30Z
2019-08-21T07:10:12Z,42.805,6.029,13.2954,4.59953,2469.876,2019-8-21T09:10:33Z
2019-08-21T07:13:15Z,42.805,6.029,13.2958,4.59954,2469.89,2019-8-21T09:13:37Z
2019-08-21T07:16:19Z,42.805,6.029,13.2959,4.59955,2469.9,2019-8-21T09:16:40Z
2019-08-21T07:19:22Z,42.805,6.029,13.2957,4.59955,2469.9,2019-8-21T09:19:43Z
2019-08-21T07:22:25Z,42.805,6.029,13.2957,4.59954,2469.853,2019-8-21T09:22:46Z
2019-08-21T07:25:28Z,42.805,6.029,13.2958,4.59954,2469.9,2019-8-21T09:25:49Z
2019-08-21T07:28:31Z,42.805,6.029,13.2956,4.59954,2469.9,2019-8-21T09:28:53Z
2019-08-21T07:31:35Z,42.805,6.029,13.2957,4.59956,2469.9,2019-8-21T09:31:56Z
2019-08-21T07:34:38Z,42.805,6.029,13.2955,4.59954,2469.9,2019-8-21T09:34:59Z
2019-08-21T07:37:41Z,42.805,6.029,13.2951,4.59954,2469.914,2019-8-21T09:38:02Z
2019-08-21T07:40:44Z,42.805,6.029,13.2954,4.59953,2469.923,2019-8-21T09:41:06Z
2019-08-21T07:43:48Z,42.805,6.029,13.2954,4.59954,2469.9,2019-8-21T09:44:09Z
2019-08-21T07:46:51Z,42.805,6.029,13.2955,4.59953,2469.937,2019-8-21T09:47:12Z
2019-08-21T07:49:54Z,42.805,6.029,13.2956,4.59956,2469.9,2019-8-21T09:50:15Z
2019-08-21T07:52:57Z,42.805,6.029,13.2956,4.59955,2469.914,2019-8-21T09:53:18Z
2019-08-21T07:56:00Z,42.805,6.029,13.2957,4.59954,2469.914,2019-8-21T09:56:21Z
2019-08-21T07:59:04Z,42.805,6.029,13.2953,4.59955,2469.923,2019-8-21T09:59:25Z
2019-08-21T08:02:07Z,42.805,6.029,13.2958,4.59958,2469.9,2019-8-21T10:02:28Z
2019-08-21T08:05:10Z,42.805,6.029,13.2958,4.59954,2469.914,2019-8-21T10:05:31Z
2019-08-21T08:08:13Z,42.805,6.029,13.2955,4.59954,2469.947,2019-8-21T10:08:34Z
2019-08-21T08:11:16Z,42.805,6.029,13.2954,4.59954,2469.947,2019-8-21T10:11:37Z
2019-08-21T08:14:20Z,42.805,6.029,13.2957,4.59956,2469.9,2019-8-21T10:14:41Z
2019-08-21T08:17:23Z,42.805,6.029,13.2957,4.59954,2469.96,2019-8-21T10:17:44Z
2019-08-21T08:20:26Z,42.805,6.029,13.2953,4.59959,2469.937,2019-8-21T10:20:47Z
2019-08-21T08:23:29Z,42.805,6.029,13.2959,4.59953,2469.947,2019-8-21T10:23:50Z
2019-08-21T08:26:32Z,42.805,6.029,13.2956,4.59953,2469.947,2019-8-21T10:26:54Z
2019-08-21T08:29:36Z,42.805,6.029,13.2953,4.59954,2469.947,2019-8-21T10:29:57Z
2019-08-21T08:32:39Z,42.805,6.029,13.2959,4.59954,2469.947,2019-8-21T10:33:00Z
2019-08-21T08:35:42Z,42.805,6.029,13.2956,4.59954,2469.947,2019-8-21T10:36:03Z
2019-08-21T08:38:45Z,42.805,6.029,13.2957,4.59953,2469.947,2019-8-21T10:39:06Z
2019-08-21T08:41:48Z,42.805,6.029,13.2953,4.59953,2469.923,2019-8-21T10:42:10Z
2019-08-21T08:44:52Z,42.805,6.029,13.2958,4.59956,2469.914,2019-8-21T10:45:13Z
2019-08-21T08:47:55Z,42.805,6.029,13.2953,4.59954,2469.947,2019-8-21T10:48:16Z
2019-08-21T08:50:58Z,42.805,6.029,13.2953,4.59955,2469.96,2019-8-21T10:51:19Z
2019-08-21T08:54:01Z,42.805,6.029,13.2954,4.59954,2469.97,2019-8-21T10:54:22Z
2019-08-21T08:57:04Z,42.805,6.029,13.2956,4.59954,2469.96,2019-8-21T10:57:25Z
2019-08-21T09:00:08Z,42.805,6.029,13.2961,4.59956,2469.9,2019-8-21T11:00:29Z
2019-08-21T09:03:11Z,42.805,6.029,13.2960,4.59954,2469.947,2019-8-21T11:03:32Z
2019-08-21T09:06:14Z,42.805,6.029,13.2958,4.59957,2469.984,2019-8-21T11:06:35Z
2019-08-21T09:09:17Z,42.805,6.029,13.2955,4.59957,2469.984,2019-8-21T11:09:38Z
2019-08-21T09:12:20Z,42.805,6.029,13.2952,4.59954,2469.984,2019-8-21T11:12:41Z
2019-08-21T09:15:24Z,42.805,6.029,13.2960,4.59955,2469.937,2019-8-21T11:15:45Z
2019-08-21T09:18:27Z,42.805,6.029,13.2958,4.59954,2469.97,2019-8-21T11:18:48Z
2019-08-21T09:21:30Z,42.805,6.029,13.2957,4.59954,2469.97,2019-8-21T11:21:51Z
2019-08-21T09:24:33Z,42.805,6.029,13.2960,4.59957,2469.947,2019-8-21T11:24:54Z
2019-08-21T09:27:36Z,42.805,6.029,13.2956,4.59967,2469.96,2019-8-21T11:27:57Z
2019-08-21T09:30:40Z,42.805,6.029,13.2956,4.59956,2469.97,2019-8-21T11:31:01Z
2019-08-21T09:33:43Z,42.805,6.029,13.2953,4.59954,2469.937,2019-8-21T11:34:04Z
2019-08-21T09:36:46Z,42.805,6.029,13.2954,4.59954,2469.96,2019-8-21T11:37:07Z
2019-08-21T09:39:49Z,42.805,6.029,13.2963,4.59955,2469.96,2019-8-21T11:40:10Z
2019-08-21T09:42:52Z,42.805,6.029,13.2961,4.59966,2469.947,2019-8-21T11:43:13Z
2019-08-21T09:45:55Z,42.805,6.029,13.2969,4.59968,2469.96,2019-8-21T11:46:17Z
2019-08-21T09:48:59Z,42.805,6.029,13.2974,4.59966,2469.984,2019-8-21T11:49:20Z
2019-08-21T09:52:02Z,42.805,6.029,13.2978,4.59961,2469.984,2019-8-21T11:52:23Z
2019-08-21T09:55:05Z,42.805,6.029,13.2975,4.59980,2469.97,2019-8-21T11:55:26Z
2019-08-21T09:58:08Z,42.805,6.029,13.2990,4.59979,2469.96,2019-8-21T11:58:30Z
2019-08-21T10:01:12Z,42.805,6.029,13.2957,4.59956,2470.007,2019-8-21T12:01:33Z
2019-08-21T10:04:15Z,42.805,6.029,13.2979,4.59973,2469.984,2019-8-21T12:04:36Z
2019-08-21T10:07:18Z,42.805,6.029,13.2972,4.59966,2469.923,2019-8-21T12:07:39Z
2019-08-21T10:10:21Z,42.805,6.029,13.2960,4.59964,2469.97,2019-8-21T12:10:42Z
2019-08-21T10:13:24Z,42.805,6.029,13.2964,4.59964,2469.993,2019-8-21T12:13:46Z
2019-08-21T10:16:28Z,42.805,6.029,13.2964,4.59956,2469.97,2019-8-21T12:16:49Z
2019-08-21T10:19:31Z,42.805,6.029,13.2963,4.59961,2469.984,2019-8-21T12:19:52Z
2019-08-21T10:22:34Z,42.805,6.029,13.2958,4.59963,2469.984,2019-8-21T12:22:55Z
2019-08-21T10:25:37Z,42.805,6.029,13.2967,4.59958,2469.984,2019-8-21T12:25:58Z
2019-08-21T10:28:40Z,42.805,6.029,13.2964,4.59956,2469.947,2019-8-21T12:29:02Z
2019-08-21T10:31:44Z,42.805,6.029,13.2962,4.59958,2469.96,2019-8-21T12:32:05Z
2019-08-21T10:34:47Z,42.805,6.029,13.2982,4.59991,2469.97,2019-8-21T12:35:08Z
2019-08-21T10:37:50Z,42.805,6.029,13.2958,4.59959,2469.923,2019-8-21T12:38:11Z
2019-08-21T10:40:53Z,42.805,6.029,13.2960,4.59959,2469.97,2019-8-21T12:41:14Z
2019-08-21T10:43:56Z,42.805,6.029,13.2954,4.59958,2469.97,2019-8-21T12:44:18Z
2019-08-21T10:47:00Z,42.805,6.029,13.2957,4.59956,2469.947,2019-8-21T12:47:21Z
2019-08-21T10:50:03Z,42.805,6.029,13.2956,4.59954,2469.96,2019-8-21T12:50:24Z
2019-08-21T10:53:06Z,42.805,6.029,13.2962,4.59956,2469.96,2019-8-21T12:53:27Z
2019-08-21T10:56:09Z,42.805,6.029,13.2959,4.59970,2469.947,2019-8-21T12:56:30Z
2019-08-21T10:59:12Z,42.805,6.029,13.2958,4.59958,2469.96,2019-8-21T12:59:34Z
2019-08-21T11:02:16Z,42.805,6.029,13.2958,4.59955,2469.947,2019-8-21T13:02:37Z
2019-08-21T11:05:19Z,42.805,6.029,13.2958,4.59968,2469.97,2019-8-21T13:05:40Z
2019-08-21T11:08:22Z,42.805,6.029,13.2979,4.59963,2469.947,2019-8-21T13:08:43Z
2019-08-21T11:11:25Z,42.805,6.029,13.2958,4.59957,2469.96,2019-8-21T13:11:47Z
2019-08-21T11:14:29Z,42.805,6.029,13.2962,4.59960,2469.947,2019-8-21T13:14:50Z
2019-08-21T11:17:32Z,42.805,6.029,13.2973,4.59976,2469.923,2019-8-21T13:17:53Z
2019-08-21T11:20:35Z,42.805,6.029,13.2963,4.59970,2469.96,2019-8-21T13:20:56Z
2019-08-21T11:23:38Z,42.805,6.029,13.2958,4.59958,2469.947,2019-8-21T13:23:59Z
2019-08-21T11:26:41Z,42.805,6.029,13.2957,4.59955,2469.937,2019-8-21T13:27:03Z
2019-08-21T11:29:45Z,42.805,6.029,13.2973,4.59977,2469.96,2019-8-21T13:30:06Z
2019-08-21T11:32:48Z,42.805,6.029,13.2977,4.59996,2469.947,2019-8-21T13:33:09Z
2019-08-21T11:35:51Z,42.805,6.029,13.2983,4.60044,2469.937,2019-8-21T13:36:12Z
2019-08-21T11:38:54Z,42.805,6.029,13.2965,4.59986,2469.947,2019-8-21T13:39:15Z
2019-08-21T11:41:57Z,42.805,6.029,13.2971,4.59968,2469.923,2019-8-21T13:42:19Z
2019-08-21T11:45:01Z,42.805,6.029,13.2966,4.59960,2469.96,2019-8-21T13:45:22Z
2019-08-21T11:48:04Z,42.805,6.029,13.2964,4.59959,2469.97,2019-8-21T13:48:25Z
2019-08-21T11:51:07Z,42.805,6.029,13.2967,4.59962,2469.937,2019-8-21T13:51:28Z
2019-08-21T11:54:10Z,42.805,6.029,13.2963,4.59964,2469.947,2019-8-21T13:54:31Z
2019-08-21T11:57:14Z,42.805,6.029,13.2971,4.59958,2469.947,2019-8-21T13:57:35Z
2019-08-21T12:00:17Z,42.805,6.029,13.2976,4.59994,2469.923,2019-8-21T14:00:38Z
2019-08-21T12:03:20Z,42.805,6.029,13.2985,4.59987,2469.96,2019-8-21T14:03:41Z
2019-08-21T12:06:23Z,42.805,6.029,13.2979,4.59984,2469.9,2019-8-21T14:06:44Z
2019-08-21T12:09:26Z,42.805,6.029,13.2971,4.59977,2469.937,2019-8-21T14:09:48Z
2019-08-21T12:12:30Z,42.805,6.029,13.2968,4.59991,2469.937,2019-8-21T14:12:51Z
2019-08-21T12:15:33Z,42.805,6.029,13.2982,4.59988,2469.923,2019-8-21T14:15:54Z
2019-08-21T12:18:36Z,42.805,6.029,13.2986,4.59980,2469.937,2019-8-21T14:18:57Z
2019-08-21T12:21:39Z,42.805,6.029,13.2971,4.59959,2469.9,2019-8-21T14:22:00Z
2019-08-21T12:24:42Z,42.805,6.029,13.2957,4.59961,2469.9,2019-8-21T14:25:03Z
2019-08-21T12:27:46Z,42.805,6.029,13.2961,4.59967,2469.923,2019-8-21T14:28:07Z
2019-08-21T12:30:49Z,42.805,6.029,13.2954,4.59961,2469.923,2019-8-21T14:31:10Z
2019-08-21T12:33:52Z,42.805,6.029,13.2966,4.59969,2469.914,2019-8-21T14:34:13Z
2019-08-21T12:36:55Z,42.805,6.029,13.2986,4.59992,2469.937,2019-8-21T14:37:16Z
2019-08-21T12:39:58Z,42.805,6.029,13.2974,4.59976,2469.914,2019-8-21T14:40:20Z
2019-08-21T12:43:02Z,42.805,6.029,13.2992,4.59976,2469.9,2019-8-21T14:43:23Z
2019-08-21T12:46:05Z,42.805,6.029,13.2957,4.59957,2469.937,2019-8-21T14:46:26Z
2019-08-21T12:49:08Z,42.805,6.029,13.2959,4.59958,2469.876,2019-8-21T14:49:29Z
2019-08-21T12:52:11Z,42.805,6.029,13.2959,4.59957,2469.914,2019-8-21T14:52:32Z
2019-08-21T12:55:15Z,42.805,6.029,13.2953,4.59956,2469.9,2019-8-21T14:55:36Z
2019-08-21T12:58:18Z,42.805,6.029,13.2957,4.59954,2469.89,2019-8-21T14:58:39Z
2019-08-21T13:01:21Z,42.805,6.029,13.2968,4.59960,2469.9,2019-8-21T15:01:42Z
2019-08-21T13:04:24Z,42.805,6.029,13.2956,4.59954,2469.914,2019-8-21T15:04:45Z
2019-08-21T13:07:27Z,42.805,6.029,13.2953,4.59956,2469.9,2019-8-21T15:07:48Z
2019-08-21T13:10:30Z,42.805,6.029,13.2954,4.59954,2469.876,2019-8-21T15:10:52Z
2019-08-21T13:13:34Z,42.805,6.029,13.2961,4.59954,2469.89,2019-8-21T15:13:55Z
2019-08-21T13:16:37Z,42.805,6.029,13.2958,4.59954,2469.914,2019-8-21T15:16:58Z
2019-08-21T13:19:40Z,42.805,6.029,13.2952,4.59954,2469.876,2019-8-21T15:20:01Z
2019-08-21T13:22:43Z,42.805,6.029,13.2957,4.59957,2469.9,2019-8-21T15:23:05Z
2019-08-21T13:25:46Z,42.805,6.029,13.2956,4.59957,2469.937,2019-8-21T15:26:08Z
2019-08-21T13:28:50Z,42.805,6.029,13.2957,4.59955,2469.9,2019-8-21T15:29:11Z
2019-08-21T13:31:53Z,42.805,6.029,13.2956,4.59955,2469.876,2019-8-21T15:32:14Z
2019-08-21T13:34:56Z,42.805,6.029,13.2957,4.59955,2469.876,2019-8-21T15:35:17Z
2019-08-21T13:37:59Z,42.805,6.029,13.2958,4.59961,2469.876,2019-8-21T15:38:20Z
2019-08-21T13:41:03Z,42.805,6.029,13.2956,4.59955,2469.914,2019-8-21T15:41:24Z
2019-08-21T13:44:06Z,42.805,6.029,13.2955,4.59955,2469.914,2019-8-21T15:44:27Z
2019-08-21T13:47:09Z,42.805,6.029,13.2957,4.59958,2469.853,2019-8-21T15:47:30Z
2019-08-21T13:50:12Z,42.805,6.029,13.2948,4.59954,2469.9,2019-8-21T15:50:33Z
2019-08-21T13:53:15Z,42.805,6.029,13.2952,4.59956,2469.876,2019-8-21T15:53:37Z
2019-08-21T13:56:19Z,42.805,6.029,13.2952,4.59956,2469.9,2019-8-21T15:56:40Z
2019-08-21T13:59:22Z,42.805,6.029,13.2955,4.59956,2469.876,2019-8-21T15:59:43Z
2019-08-21T14:02:25Z,42.805,6.029,13.2957,4.59957,2469.886,2019-8-21T16:02:46Z
2019-08-21T14:05:28Z,42.805,6.029,13.2953,4.59956,2469.876,2019-8-21T16:05:49Z
2019-08-21T14:08:31Z,42.805,6.029,13.2956,4.59955,2469.89,2019-8-21T16:08:53Z
2019-08-21T14:11:35Z,42.805,6.029,13.2953,4.59955,2469.9,2019-8-21T16:11:56Z
2019-08-21T14:14:38Z,42.805,6.029,13.2955,4.59954,2469.9,2019-8-21T16:14:59Z
2019-08-21T14:17:41Z,42.805,6.029,13.2954,4.59954,2469.853,2019-8-21T16:18:02Z
2019-08-21T14:20:44Z,42.805,6.029,13.2957,4.59954,2469.853,2019-8-21T16:21:05Z
2019-08-21T14:23:47Z,42.805,6.029,13.2957,4.59956,2469.83,2019-8-21T16:24:09Z
2019-08-21T14:26:51Z,42.805,6.029,13.2954,4.59954,2469.867,2019-8-21T16:27:12Z
2019-08-21T14:29:54Z,42.805,6.029,13.2954,4.59956,2469.876,2019-8-21T16:30:15Z
2019-08-21T14:32:57Z,42.805,6.029,13.2953,4.59954,2469.867,2019-8-21T16:33:18Z
2019-08-21T14:36:00Z,42.805,6.029,13.2953,4.59953,2469.867,2019-8-21T16:36:22Z
2019-08-21T14:39:04Z,42.805,6.029,13.2953,4.59952,2469.853,2019-8-21T16:39:25Z
2019-08-21T14:42:07Z,42.805,6.029,13.2954,4.59953,2469.89,2019-8-21T16:42:28Z
2019-08-21T14:45:10Z,42.805,6.029,13.2953,4.59953,2469.89,2019-8-21T16:45:31Z
2019-08-21T14:48:13Z,42.805,6.029,13.2955,4.59953,2469.867,2019-8-21T16:48:34Z
2019-08-21T14:51:16Z,42.805,6.029,13.2957,4.59954,2469.876,2019-8-21T16:51:38Z
2019-08-21T14:54:20Z,42.805,6.029,13.2957,4.59961,2469.867,2019-8-21T16:54:41Z
2019-08-21T14:57:23Z,42.805,6.029,13.2953,4.59952,2469.853,2019-8-21T16:57:44Z
2019-08-21T15:00:26Z,42.805,6.029,13.2954,4.59954,2469.853,2019-8-21T17:00:47Z
2019-08-21T15:03:29Z,42.805,6.029,13.2957,4.59955,2469.83,2019-8-21T17:03:50Z
2019-08-21T15:06:32Z,42.805,6.029,13.2952,4.59955,2469.853,2019-8-21T17:06:54Z
2019-08-21T15:09:36Z,42.805,6.029,13.2960,4.59958,2469.876,2019-8-21T17:09:57Z
2019-08-21T15:12:39Z,42.805,6.029,13.2952,4.59957,2469.89,2019-8-21T17:13:00Z
2019-08-21T15:15:42Z,42.805,6.029,13.2953,4.59953,2469.853,2019-8-21T17:16:03Z